Location: Wayah Bald
(35.1806°N, 83.5603°W)
Time: 17:09:28
(UTC-04:00)

Daily predictions for brighter satellites

Satellite Brightness Start Highest point End
(mag) Time Altitude Azimuth Time Altitude Azimuth Time Altitude Azimuth
SL-16 R/B 3.9 19:08:49 10° NW 19:14:04 40° WSW 19:19:18 10° S
Cosmos 1842 Rocket 3.8 19:10:16 10° S 19:14:45 82° W 19:19:12 10° N
Cosmos 1626 2.4 19:15:35 10° N 19:19:19 76° W 19:23:01 10° S
BREEZE-M R/B 3.2 19:18:34 10° S 19:20:38 24° SE 19:23:08 10° ENE
Cosmos 1908 3.2 19:18:28 10° S 19:22:19 62° E 19:26:11 10° NNE
Cosmos 1703 3.2 19:19:09 10° N 19:23:04 86° E 19:26:57 10° S
Cosmos 2237 4.2 19:21:41 10° NNW 19:27:22 63° ENE 19:33:00 10° SSE
Cosmos 1269 Rocket 4.1 19:22:57 10° S 19:28:06 59° ESE 19:33:18 10° NNE
Cosmos 44 3.3 19:23:46 10° SW 19:28:08 70° WNW 19:32:27 10° NNE
Cosmos 1500 Rocket 3.6 19:24:33 10° N 19:28:53 86° W 19:33:12 10° S
Cosmos 2237 Rocket 3.8 19:26:21 10° NNE 19:29:20 14° NE 19:31:46 11° E
MTI 4.3 19:28:04 10° N 19:31:15 62° WNW 19:34:24 10° SSW
Cosmos 2227 Rocket 3.3 19:29:37 10° SSE 19:33:53 22° E 19:38:10 10° NE
IUS-17 SRM-1 4.4 19:32:26 10° WSW 19:35:14 19° SSW 19:36:57 10° SSE
Aureole 2 Rocket 3.8 19:32:24 10° N 19:35:44 25° ENE 19:39:06 10° ESE
Molniya-1 3.1 19:34:26 10° S 19:35:51 24° ESE 19:35:55 24° ESE
RESURS DK-1 3.1 19:32:46 10° NNW 19:36:49 56° WSW 19:40:50 10° S
SMAP 4.4 19:34:07 10° S 19:38:33 45° W 19:43:01 10° NNW
Atlas Centaur 2 3.1 19:36:41 10° WSW 19:40:21 29° SSW 19:44:45 10° SE
Iridium 4 Rocket 3.8 19:35:26 10° SSE 19:40:50 56° E 19:46:35 10° N
SPOT 3 Rocket 3.6 19:36:00 10° SSE 19:41:05 59° ENE 19:46:12 10° N
Gbstr 26 Del rocket 4.2 19:37:48 10° NNW 19:42:33 39° NE 19:47:06 15° E
Cosmos 1452 Rocket 3.8 19:37:57 10° NNW 19:43:12 72° WSW 19:48:25 10° S
Centaur D AC-28 4.0 19:41:18 10° S 19:44:10 17° SE 19:47:34 13° ESE
Cosmos 1300 3.3 19:43:01 10° SSE 19:46:27 33° E 19:49:55 10° NNE
Cosmos 2360 Rocket 3.1 19:44:26 10° NNW 19:49:55 52° WSW 19:55:23 10° S
Sich 1 3.7 19:47:58 10° NNE 19:51:54 31° ENE 19:55:51 10° SE
CZ-4C R/B 2.5 19:49:24 10° SW 19:54:27 63° NW 20:00:10 10° NNE
Cosmos 2098 Rocket 3.3 19:51:41 10° S 19:56:08 80° E 20:01:54 10° N
COSMO-SKYMED 1 3.2 19:52:42 10° N 19:56:58 59° WNW 20:01:13 10° SSW
FENGYUN 3A 3.6 19:54:21 10° SSE 19:59:40 62° ENE 20:05:01 10° N
COSMOS 2428 2.6 19:58:27 10° NNW 20:04:10 85° ENE 20:09:52 10° SSE
Cosmos 2219 3.7 19:58:48 10° SSW 20:04:29 64° WNW 20:10:12 10° NNE
Cosmos 1535 Rocket 4.3 19:59:36 10° S 20:05:43 79° E 20:11:50 10° N
Cosmos 2333 Rocket 2.5 20:01:31 10° N 20:07:02 45° ENE 20:11:07 17° SE
Cosmos 1805 Rocket 3.4 20:03:39 10° N 20:08:04 79° E 20:12:29 10° S
Meteor 2-10 3.8 20:03:19 10° S 20:08:17 65° E 20:13:21 10° NNE
Hubble Space Telescope 2.2 20:05:25 10° SW 20:08:49 25° S 20:10:06 21° SE
Cosmos 2228 Rocket 4.3 20:05:59 10° SSE 20:08:23 24° ESE 20:08:23 24° ESE
Cosmos 2297 Rocket 2.6 20:05:43 10° S 20:10:56 40° ESE 20:14:05 21° NE
PSLV R/B 3.4 20:08:16 10° W 20:11:21 56° NNW 20:12:00 44° NNE
Cosmos 1666 Rocket 3.4 20:13:11 10° N 20:17:29 61° E 20:21:44 10° SSE
Cosmos 1726 3.1 20:14:24 10° SSW 20:17:59 48° W 20:21:34 10° N
Cosmos 1328 Rocket 3.8 20:13:57 10° SSE 20:18:08 44° E 20:19:44 31° NE
Cosmos 2082 3.9 20:15:52 10° S 20:21:20 48° ESE 20:24:19 25° NE
Cosmos 1633 Rocket 3.0 20:17:48 10° N 20:22:10 56° E 20:24:48 23° SSE
Cosmos 2251 Rocket 3.6 20:17:06 10° S 20:22:12 52° ESE 20:25:27 22° NE
DELTA 2 R/B (1) 4.1 20:24:56 10° WNW 20:30:21 53° SSW 20:33:03 28° SSE
FengYun 1-2 T 4.1 20:28:03 10° SSE 20:33:32 73° ENE 20:39:00 10° N
Cosmos 1934 Rocket 4.2 20:27:24 10° SSW 20:33:45 74° W 20:40:08 10° N
Meteor 2-2 Rocket 4.1 20:30:11 10° S 20:35:53 86° E 20:41:33 10° N
Cosmos 2219 Rocket 2.2 20:31:01 10° NNW 20:36:39 83° WSW 20:41:34 14° SSE
ALOS 3.3 20:33:50 10° S 20:38:18 47° W 20:42:49 10° NNW
OAO 1 Rocket 4.3 20:34:31 10° W 20:39:50 82° S 20:40:46 61° ESE
Cosmos 2084 3.8 20:38:01 10° NNW 20:40:52 47° NNW 20:40:52 47° NNW
Delta 2 Rocket 3.7 20:38:24 10° W 20:41:39 48° SW 20:41:39 48° SW
Thor Agena Rocket 4.0 20:39:35 10° N 20:44:34 58° WNW 20:49:30 10° SSW
USA 267 3.3 20:48:33 51° E 20:49:34 56° SE 20:55:56 10° SSW
Cosmos 1331 Rocket 3.8 20:46:58 10° NNW 20:52:12 88° ENE 20:52:43 73° SSE
Meteor 1-27 4.1 20:48:32 10° S 20:54:12 73° E 20:59:59 10° NNE
BREEZE-M DEB (TANK) 3.7 20:52:22 10° NW 21:04:20 51° NNE 21:04:20 51° NNE
MOS 1-B Rocket 3.9 21:06:25 66° NNE 21:06:25 66° NNE 21:11:45 10° N
H-2A R/B 4.3 21:07:18 35° W 21:07:18 35° W 21:10:27 10° NNW
Cosmos 2237 Rocket 2.3 21:08:19 10° NNW 21:13:39 73° WNW 21:13:39 73° WNW
Cosmos 2227 Rocket 3.3 21:12:14 10° SW 21:17:35 42° WNW 21:21:11 20° N
SL-16 R/B 4.0 21:21:21 10° NNW 21:23:15 21° N 21:23:15 21° N
Atlas Centaur 2 4.4 21:26:34 10° SW 21:28:27 13° SSW 21:28:27 13° SSW
Cosmos 2333 Rocket 4.4 21:46:38 10° NW 21:50:54 22° W 21:53:15 17° SW
Cosmos 2297 Rocket 4.1 21:50:27 10° WSW 21:55:02 25° WNW 21:56:00 24° NW
